Theta_e
324 323 323 323 322 322 322 322 322 321 321 321 320 320 320 320 319 319 319 319 320 321 321 323 324 325 319 307 307 345 364 363 356 350 336 332 331 329 322 325 329 325 325 327 330 328 329
323 323 323 322 322 322 322 321 322 321 321 320 320 320 319 319 319 319 319 319 321 321 322 323 324 326 314 296 326 354 357 354 350 347 339 336 332 334 328 326 326 329 326 327 326 328 330
324 323 322 322 321 320 320 320 321 320 320 320 319 319 318 318 319 318 318 320 320 321 321 323 324 324 310 304 344 353 351 350 350 345 337 342 342 336 330 320 331 329 323 324 324 328 327
323 322 322 321 321 320 320 319 319 320 320 319 319 318 318 318 318 317 318 319 320 321 322 324 326 316 299 314 342 343 341 338 343 346 344 343 344 338 331 324 323 319 319 313 324 326 326
322 322 322 322 321 321 320 320 319 319 318 319 318 318 317 317 316 316 318 318 320 322 325 326 312 308 299 321 315 330 335 333 336 340 338 343 337 330 319 312 306 310 306 310 317 326 324
324 323 323 322 322 321 320 320 320 319 319 318 318 317 317 316 315 315 316 318 322 320 323 325 323 305 308 310 310 313 333 336 329 331 329 327 322 311 306 305 301 303 307 309 310 318 323
324 323 323 322 321 320 320 319 319 319 319 319 318 317 316 315 314 315 311 312 310 306 313 305 305 307 310 312 310 310 316 316 313 313 307 307 303 300 303 308 309 308 307 308 313 322 320
322 322 321 321 321 320 319 319 318 318 318 318 318 317 316 315 314 314 307 306 310 313 307 312 311 313 314 311 306 309 316 309 313 308 306 304 300 307 307 305 306 305 306 307 314 321 320
321 320 319 319 320 319 319 318 318 318 317 317 317 316 315 314 313 308 307 310 314 314 304 308 311 311 312 312 307 307 319 314 310 305 304 301 305 309 305 302 298 297 303 296 307 319 320
319 318 318 318 319 318 318 318 317 317 317 316 317 316 315 313 310 310 309 314 314 312 299 304 301 308 305 306 302 311 319 314 307 307 305 302 306 303 299 298 298 296 300 305 316 309 304
318 319 317 318 318 317 317 317 317 316 316 316 316 315 313 311 306 306 312 310 311 310 290 306 301 308 303 303 303 304 312 311 305 305 300 300 301 299 298 300 301 299 303 302 311 298 302
319 318 317 318 318 317 316 316 316 315 315 315 315 314 313 307 305 309 313 312 312 301 293 300 303 300 300 300 302 305 307 306 307 302 299 302 302 302 301 302 301 304 302 299 295 292 289
319 318 317 317 317 316 316 316 315 314 314 313 312 311 310 314 307 312 311 313 302 296 308 300 299 298 297 296 300 303 301 298 297 294 291 297 301 301 303 297 302 301 294 289 290 289 288
318 318 317 317 316 316 316 316 315 314 313 312 310 309 309 315 308 312 313 306 296 306 305 303 300 299 298 299 298 299 297 296 297 295 292 292 296 302 303 298 299 298 295 290 287 286 290
317 317 317 316 316 316 315 315 314 313 312 311 309 308 308 312 314 311 309 299 300 303 306 303 301 299 298 299 298 297 296 295 297 297 294 293 296 305 305 305 304 297 295 297 289 287 292
317 317 317 316 316 315 315 315 314 313 312 311 306 311 311 315 315 312 305 299 303 308 308 302 298 301 299 300 297 296 297 303 303 303 299 298 295 301 305 305 304 301 300 294 290 287 289
316 316 316 316 316 315 315 314 313 312 311 310 310 308 314 315 315 309 301 300 306 310 308 302 300 299 299 300 299 300 300 304 306 305 304 301 298 299 300 298 296 299 295 291 290 289 289
316 316 316 316 315 315 315 314 313 311 310 307 307 301 316 313 310 298 299 303 306 309 308 306 305 303 301 302 300 300 302 305 308 305 301 301 295 293 296 299 300 298 294 292 292 290 287
315 315 315 315 315 315 315 314 312 310 310 306 306 307 319 311 301 299 303 306 307 307 305 305 305 306 304 301 299 301 305 307 308 305 300 300 293 290 292 296 299 298 297 293 291 289 289
314 315 315 315 315 315 314 313 311 310 310 307 310 306 309 309 304 304 302 303 305 310 307 306 304 305 302 300 301 301 304 308 308 307 321 306 291 291 289 293 294 297 300 296 294 289 289
313 313 314 314 314 315 314 313 312 310 310 308 309 304 306 302 303 303 301 304 306 307 308 307 304 305 302 301 299 300 303 305 307 314 304 301 295 294 295 296 298 299 300 300 295 294 293
312 313 313 313 314 314 314 313 312 310 309 312 308 305 307 304 304 303 301 303 307 309 307 305 304 306 305 300 301 301 301 301 299 302 298 297 295 298 294 298 298 298 301 300 300 298 300
313 313 312 312 312 313 313 313 313 311 308 302 306 308 308 302 304 301 302 306 309 309 310 310 309 305 304 306 307 305 304 304 303 302 299 297 294 292 292 295 297 294 298 299 300 300 306
313 313 312 312 312 312 313 313 313 312 309 305 303 304 306 301 304 305 308 309 309 309 306 311 309 303 306 310 306 304 303 301 301 302 300 295 293 292 291 293 288 297 302 306 308 309 310
313 312 312 312 312 312 312 312 313 312 311 302 302 302 304 301 305 307 307 307 308 307 307 308 311 312 310 304 301 297 297 299 301 302 297 297 294 291 291 289 294 300 306 307 304 303 309
312 312 312 312 311 311 311 311 312 312 311 302 302 303 302 302 302 310 305 306 303 301 305 308 313 314 307 301 299 293 293 295 297 301 297 295 296 296 290 290 290 298 305 310 308 298 310
312 312 312 312 312 311 311 311 311 312 311 305 301 303 300 300 305 307 303 303 307 304 301 304 308 309 305 298 296 295 295 300 296 294 295 296 294 293 292 291 295 302 307 308 295 298 309
312 311 311 311 311 311 311 312 312 312 311 306 300 303 299 296 299 306 309 304 305 305 301 305 305 304 304 298 297 298 296 299 296 297 298 297 296 294 292 291 292 308 308 302 303 306 310
311 311 311 311 311 311 311 311 312 311 311 307 296 303 303 296 298 306 307 309 312 312 306 304 303 303 306 302 301 300 300 298 296 296 301 298 301 299 298 298 304 306 306 308 309 308 308
Wind_Speed
20 20 21 21 21 20 22 21 22 21 21 20 19 17 16 15 14 13 12 12 10 9 8 9 10 10 2 1 8 4 15 20 16 7 7 6 4 4 4 4 5 4 5 8 8 9 6
21 21 21 22 22 22 21 23 21 22 22 21 20 18 17 15 15 13 12 12 10 9 8 8 8 9 1 2 2 12 17 19 19 12 10 6 7 6 4 6 7 12 9 11 8 2 5
20 21 22 22 23 23 23 23 22 23 22 22 21 18 17 15 14 13 13 13 11 9 8 7 6 3 1 10 6 12 23 21 23 18 14 17 4 4 3 3 7 7 7 10 11 2 2
22 23 22 22 21 20 21 22 22 21 20 23 22 19 18 16 15 14 15 14 12 9 7 5 4 1 7 4 9 11 7 3 10 11 14 5 7 5 2 2 4 3 5 3 3 6 4
20 19 19 19 20 20 20 20 20 21 23 22 22 19 18 16 15 15 15 15 11 6 4 4 2 2 7 6 5 9 10 10 17 10 10 10 6 9 4 2 4 2 5 5 3 7 7
20 20 21 22 22 22 21 21 21 21 21 23 20 20 18 16 15 16 18 8 6 1 3 4 4 2 4 5 5 8 10 10 8 10 8 7 7 3 2 4 6 7 5 4 3 7 2
21 21 22 22 22 22 22 23 23 23 23 22 23 21 18 16 14 13 10 2 3 2 2 9 5 3 3 4 1 6 7 7 4 2 2 2 4 6 10 9 10 9 2 5 3 7 5
22 23 24 24 23 24 24 24 24 24 24 23 22 22 19 16 15 11 2 3 5 2 7 8 1 7 5 2 2 5 7 6 5 5 3 7 7 12 7 6 9 5 6 4 5 10 2
23 24 25 25 24 24 24 25 24 24 24 23 22 22 19 17 14 3 2 6 3 3 2 7 7 5 5 9 7 7 9 4 3 1 3 6 13 4 7 10 3 3 6 4 6 6 6
24 24 25 26 25 25 25 26 26 25 25 24 22 21 19 17 5 2 6 4 6 5 6 7 3 7 4 4 3 6 7 7 0 8 5 7 6 3 5 4 5 2 9 8 14 6 5
22 22 25 25 25 26 26 27 27 27 26 24 22 19 14 7 3 2 4 5 0 4 4 2 4 1 2 8 3 2 3 4 6 5 4 10 6 6 4 6 4 8 5 8 9 6 6
22 22 24 25 26 26 27 28 28 29 28 25 23 18 10 2 1 8 9 7 4 8 3 3 3 1 3 1 1 2 4 3 2 5 4 10 4 5 9 3 2 4 2 6 5 4 2
22 22 23 25 26 26 27 28 29 30 30 28 25 15 5 1 5 1 5 5 7 3 4 3 6 2 1 3 2 5 4 3 3 3 5 6 5 5 3 3 4 7 8 5 7 7 5
22 22 23 24 25 26 27 28 29 31 32 31 30 11 9 6 3 2 4 6 4 3 6 6 2 3 4 6 4 3 5 3 3 5 3 2 9 8 5 3 5 3 7 7 2 1 5
21 22 23 24 25 26 27 29 30 32 33 32 25 1 2 5 10 3 6 5 4 5 4 4 3 5 5 3 1 3 6 5 6 8 8 4 5 5 3 3 7 3 2 4 8 3 3
21 22 23 24 25 26 28 29 31 33 34 31 3 4 4 3 8 5 6 4 4 6 3 2 3 1 6 5 3 5 2 2 2 5 4 5 2 2 8 7 4 3 5 3 5 2 2
21 21 22 24 25 27 28 29 30 32 35 27 3 4 4 4 1 7 3 6 7 9 4 2 3 2 2 4 3 2 1 2 2 2 5 4 4 8 3 4 3 7 6 7 6 4 6
20 20 22 23 25 26 28 29 30 30 33 8 3 3 4 4 4 1 1 4 6 7 2 5 4 3 3 2 5 2 3 6 3 2 3 2 5 2 4 3 3 2 3 5 7 2 3
19 20 21 23 24 26 28 29 30 29 26 3 3 3 5 3 3 3 7 6 3 6 5 2 2 1 1 2 4 2 3 3 1 3 3 4 3 4 10 9 6 6 3 5 6 4 2
19 20 21 22 23 25 27 28 30 31 27 2 3 6 6 7 2 3 5 6 8 7 4 3 1 4 4 4 6 2 6 5 6 4 8 8 3 7 7 7 2 4 5 4 5 4 3
19 21 21 21 22 23 25 27 30 32 28 1 5 1 2 5 5 4 2 4 6 9 6 9 5 4 3 3 4 3 4 6 5 4 3 5 3 3 6 5 2 4 2 4 1 5 6
19 19 20 20 21 22 23 25 28 32 27 5 3 4 5 3 4 5 6 5 5 8 3 6 4 4 2 4 7 5 3 2 3 4 3 3 2 1 4 2 1 4 7 6 4 5 5
17 18 19 20 21 21 22 23 24 27 16 4 3 3 3 3 5 3 1 4 4 6 6 5 6 2 3 3 7 5 4 3 4 4 1 2 5 3 5 4 6 6 4 2 0 2 9
15 17 19 20 20 21 21 21 21 21 15 2 2 1 3 5 1 2 5 4 5 7 5 8 6 1 3 6 3 5 3 3 6 8 7 8 5 3 4 3 2 9 6 3 12 5 7
14 14 16 18 18 19 20 20 19 19 19 1 2 2 2 3 3 7 2 3 7 7 4 4 4 2 6 4 5 5 7 8 6 4 4 4 6 3 4 5 6 1 4 6 6 3 2
15 14 14 16 17 18 19 19 20 19 19 3 3 1 1 2 5 3 2 3 3 3 7 6 7 8 4 4 4 6 5 6 5 10 6 6 4 6 3 5 8 9 2 9 9 1 3
13 14 14 15 15 17 18 18 19 19 18 5 3 3 1 2 5 1 4 3 1 2 2 6 8 8 3 3 3 5 6 4 4 4 3 4 3 6 3 5 8 8 5 6 4 9 7
12 13 14 14 14 15 16 16 17 18 18 8 4 3 3 3 7 5 3 1 3 2 3 5 6 3 4 2 4 5 4 7 4 5 4 4 2 4 3 2 7 8 2 9 8 5 10
13 13 14 14 14 15 15 16 15 16 16 10 3 4 3 3 7 3 9 12 7 10 3 1 3 2 4 2 1 0 3 1 4 4 1 2 7 4 9 8 5 3 3 4 8 10 7
Wind_Direction
11 8 5 2 360 357 356 353 352 350 346 343 340 335 330 327 321 316 313 311 313 313 306 299 303 317 292 217 250 175 144 163 165 204 193 179 188 128 167 186 151 286 240 301 251 280 351
9 4 1 359 358 355 352 351 349 349 346 343 341 336 330 326 319 313 310 309 308 302 294 289 300 312 261 235 110 150 148 160 181 198 207 168 213 190 154 176 183 186 188 258 314 352 22
6 3 0 359 357 354 351 350 348 346 345 343 342 337 331 326 318 312 309 307 302 294 282 279 292 290 36 234 140 153 160 180 183 200 206 219 184 171 195 181 201 151 190 243 278 293 49
7 4 0 359 355 352 351 348 347 343 343 344 342 338 333 329 320 313 310 303 296 286 272 262 233 175 242 301 116 141 166 193 223 223 224 239 223 266 214 281 81 154 155 200 250 146 220
4 357 355 354 349 347 343 344 342 344 345 342 343 339 335 329 321 314 306 301 285 255 190 158 126 149 268 93 181 175 175 183 202 223 257 266 150 204 163 214 350 299 256 187 150 209 177
355 353 352 350 346 346 344 340 337 337 339 343 342 341 336 329 322 318 314 279 140 144 204 192 262 14 273 215 207 171 198 193 181 192 234 217 215 175 65 105 239 240 227 220 153 201 152
356 354 352 348 346 344 343 343 340 334 332 332 340 339 333 328 324 328 345 95 34 20 226 199 199 241 277 251 280 198 177 139 222 320 251 333 52 246 237 204 239 224 272 243 203 171 128
356 354 353 350 346 345 344 341 339 335 332 331 334 337 333 327 323 325 291 139 215 176 314 227 235 280 265 156 325 275 114 157 132 222 26 7 273 268 276 179 242 125 206 255 11 160 56
354 353 351 351 346 345 342 340 339 335 333 331 332 337 333 324 323 297 204 232 214 50 125 297 190 197 220 143 199 223 132 144 143 214 203 176 248 321 258 303 173 220 182 218 145 113 25
355 352 350 350 346 343 342 341 338 335 333 331 331 334 329 322 317 321 271 210 239 176 64 285 252 273 140 136 275 216 165 135 139 209 203 229 269 264 337 251 162 16 199 143 138 130 189
348 348 352 349 346 344 342 340 337 334 332 330 329 327 323 331 291 201 259 300 130 61 59 204 241 199 139 141 200 228 170 60 200 208 116 259 280 313 290 247 166 234 189 172 171 144 105
349 353 352 348 346 345 343 340 337 334 331 330 326 322 317 158 247 247 301 317 70 41 347 303 245 204 127 355 275 48 130 81 165 188 227 242 242 189 217 248 224 291 51 53 75 117 67
350 350 351 347 346 345 343 340 338 334 331 330 324 311 248 270 225 343 295 36 42 120 338 225 223 184 164 240 257 141 173 197 201 23 351 321 301 263 226 317 345 59 46 0 1 15 226
350 349 347 348 347 346 344 342 339 335 332 331 325 317 206 228 301 356 56 54 71 247 247 288 145 58 200 166 246 140 110 220 226 85 43 48 354 355 348 205 188 357 131 145 202 231 267
349 349 349 348 348 347 346 343 341 337 335 334 320 278 237 258 198 15 71 48 216 218 275 307 28 84 308 322 158 119 175 204 226 171 169 160 278 302 224 291 127 186 25 179 104 12 52
351 350 350 350 350 349 348 346 343 340 336 337 332 342 277 133 157 80 73 237 248 212 315 305 77 151 22 338 136 120 236 227 129 174 160 214 29 278 294 34 12 86 157 31 6 84 350
354 352 353 352 352 351 349 348 346 343 339 331 16 31 273 198 73 50 139 235 271 260 166 263 197 70 40 352 58 65 239 299 182 167 142 111 101 287 31 11 273 7 14 53 110 104 146
353 353 353 354 353 352 351 349 348 348 344 33 3 51 291 15 51 49 202 209 273 304 10 219 105 99 107 21 29 23 169 205 200 182 82 15 122 287 222 287 349 26 108 115 111 257 48
352 352 355 355 354 353 352 350 349 351 357 325 30 266 304 119 89 328 307 299 297 332 310 314 122 111 239 123 101 328 304 351 49 83 144 181 17 16 350 358 3 49 335 108 97 76 196
353 354 355 355 354 354 353 352 350 349 352 75 29 359 331 36 48 83 354 318 329 309 273 354 39 65 61 63 8 83 359 349 2 62 64 81 103 144 176 215 203 320 345 80 115 111 193
354 354 355 355 354 355 355 355 353 349 350 12 26 347 167 329 341 355 307 359 339 344 334 15 41 37 154 83 39 19 5 350 23 34 58 93 130 191 222 240 240 255 284 326 185 192 167
354 356 356 356 356 358 358 358 358 353 343 62 48 25 351 282 302 341 357 20 359 323 302 336 46 324 101 143 178 189 138 89 265 345 63 13 219 135 315 274 169 273 290 285 206 131 55
352 353 355 357 360 0 1 2 4 5 1 44 328 341 100 297 344 26 13 322 328 345 294 348 329 68 42 192 191 210 198 181 194 171 235 139 134 91 257 349 357 344 256 215 235 347 150
348 352 356 358 360 1 2 4 7 11 22 302 271 49 54 281 313 248 335 300 319 303 259 301 317 8 305 4 61 47 55 308 197 241 183 156 121 123 216 34 292 240 303 150 112 51 94
345 349 352 356 357 359 2 4 5 7 3 299 305 57 96 270 257 286 359 304 316 304 277 274 289 232 323 35 57 20 340 2 314 276 224 190 127 131 151 184 282 315 171 157 115 353 74
344 345 346 350 354 357 358 2 2 5 3 8 298 310 121 110 251 343 321 296 283 310 324 284 313 309 45 97 101 167 214 211 298 322 97 84 69 127 131 160 212 231 194 133 119 120 209
341 345 344 343 347 351 355 358 360 4 1 354 294 2 118 222 266 250 217 232 39 46 262 293 329 331 11 100 130 166 221 200 195 222 290 353 20 169 158 207 281 249 210 149 147 221 156
336 337 339 341 340 343 346 347 353 358 3 8 285 345 40 288 279 246 269 266 337 157 200 295 353 338 348 52 149 208 174 219 140 225 195 180 157 218 107 126 274 197 87 165 192 124 151
336 334 334 337 338 339 339 339 345 350 358 18 331 327 342 201 257 310 263 247 227 235 150 267 244 345 252 57 295 146 246 133 156 232 4 268 186 200 172 216 264 285 200 134 145 143 179